TimeCST,TemperatureF,Dew PointF,Humidity,Sea Level PressureIn,VisibilityMPH,Wind Direction,Wind SpeedMPH,Gust SpeedMPH,PrecipitationIn,Events,Conditions,WindDirDegrees,DateUTC
12:53 AM,66.0,62.1,87,30.19,10.0,Calm,Calm,-,N/A,,Clear,0,2012-11-12 06:53:00
1:53 AM,70.0,62.1,76,30.18,10.0,SSE,10.4,-,N/A,,Clear,160,2012-11-12 07:53:00
2:53 AM,70.0,62.1,76,30.17,10.0,SSE,10.4,-,N/A,,Clear,150,2012-11-12 08:53:00
3:53 AM,66.9,63.0,87,30.15,10.0,ESE,10.4,-,N/A,,Clear,120,2012-11-12 09:53:00
4:53 AM,70.0,63.0,78,30.16,10.0,SSE,10.4,-,N/A,,Clear,150,2012-11-12 10:53:00
5:53 AM,71.1,63.0,75,30.16,10.0,SSE,13.8,-,N/A,,Clear,150,2012-11-12 11:53:00
6:53 AM,71.1,64.0,78,30.19,10.0,SSE,10.4,-,N/A,,Clear,160,2012-11-12 12:53:00
7:53 AM,72.0,64.9,78,30.19,10.0,SSE,10.4,-,N/A,,Clear,160,2012-11-12 13:53:00
8:53 AM,75.0,66.0,73,30.21,10.0,SSE,9.2,-,N/A,,Clear,160,2012-11-12 14:53:00
9:53 AM,75.9,66.0,71,30.22,10.0,South,10.4,-,N/A,,Mostly Cloudy,190,2012-11-12 15:53:00
10:53 AM,75.9,64.9,69,30.22,10.0,South,10.4,-,N/A,,Overcast,180,2012-11-12 16:53:00
11:53 AM,75.9,66.0,71,30.20,10.0,South,12.7,-,N/A,,Overcast,170,2012-11-12 17:53:00
12:53 PM,68.0,63.0,84,30.19,10.0,NW,15.0,-,0.00,Rain,Light Rain,310,2012-11-12 18:53:00
12:58 PM,66.2,62.6,88,30.18,9.0,NW,15.0,-,0.00,Rain,Light Rain,320,2012-11-12 18:58:00
1:13 PM,66.2,62.6,88,30.19,4.0,NW,13.8,-,0.02,Rain,Light Rain,320,2012-11-12 19:13:00
1:53 PM,63.0,61.0,93,30.19,7.0,NNW,12.7,19.6,0.03,Rain,Light Rain,340,2012-11-12 19:53:00
2:53 PM,62.1,59.0,90,30.20,10.0,NNW,15.0,-,0.00,Rain,Light Rain,340,2012-11-12 20:53:00
3:53 PM,61.0,57.9,90,30.22,10.0,North,11.5,19.6,0.00,,Overcast,360,2012-11-12 21:53:00
4:53 PM,60.1,57.0,90,30.23,10.0,North,15.0,20.7,N/A,,Overcast,360,2012-11-12 22:53:00
5:41 PM,59.0,55.4,88,30.24,10.0,North,13.8,-,N/A,,Overcast,350,2012-11-12 23:41:00
5:53 PM,57.9,55.0,90,30.25,10.0,North,16.1,24.2,N/A,,Overcast,350,2012-11-12 23:53:00
6:53 PM,57.0,53.1,87,30.27,10.0,North,12.7,21.9,N/A,,Overcast,360,2012-11-13 00:53:00
7:53 PM,57.0,52.0,83,30.28,10.0,North,13.8,19.6,N/A,,Overcast,350,2012-11-13 01:53:00
8:53 PM,57.0,52.0,83,30.28,10.0,North,10.4,18.4,N/A,,Mostly Cloudy,360,2012-11-13 02:53:00
8:57 PM,57.2,51.8,82,30.27,10.0,North,13.8,18.4,N/A,,Overcast,360,2012-11-13 02:57:00
9:53 PM,57.0,50.0,77,30.29,10.0,North,16.1,26.5,N/A,,Overcast,360,2012-11-13 03:53:00
10:00 PM,55.4,48.2,77,30.29,10.0,North,15.0,25.3,N/A,,Overcast,360,2012-11-13 04:00:00
10:53 PM,54.0,48.0,80,30.28,10.0,North,15.0,25.3,N/A,,Overcast,350,2012-11-13 04:53:00
11:19 PM,53.6,46.4,77,30.28,10.0,North,15.0,-,N/A,,Scattered Clouds,350,2012-11-13 05:19:00
11:53 PM,51.1,45.0,80,30.29,10.0,North,16.1,24.2,N/A,,Clear,350,2012-11-13 05:53:00